SCP
0 0 0 0 0 0 0 0 0 0 1 0 0 0 0 0 0 0 0 0 0 0 0 0 0 0 0 0 0 0 0 0 0 0 0 0 0 0 0 0 0 0 0
0 0 0 0 0 0 0 0 0 1 1 1 0 0 0 0 0 0 0 0 0 0 0 0 0 0 0 0 0 0 0 0 0 0 0 0 0 -0 0 0 0 0 0
0 0 0 0 0 0 0 0 0 1 1 1 0 1 0 1 1 0 0 0 0 0 0 0 0 0 0 0 0 0 0 0 0 0 0 0 0 0 -0 -0 0 0 0
0 0 0 0 0 0 0 0 0 0 0 0 0 0 1 1 1 0 0 0 0 0 0 0 0 0 0 0 0 0 0 0 0 0 0 0 0 0 -0 -0 0 0 0
0 0 0 0 0 0 0 0 0 0 0 0 0 0 0 0 0 0 0 0 0 0 0 0 0 0 0 0 0 0 0 0 0 0 0 0 0 0 -0 -0 0 0 0
0 0 0 0 0 0 0 0 0 0 0 0 0 0 0 0 0 0 0 0 0 0 0 0 0 0 0 0 0 0 0 0 0 0 0 0 0 0 0 0 0 0 0
0 0 0 0 0 0 0 0 0 0 0 0 0 0 0 0 0 0 0 0 0 0 0 0 0 0 0 0 0 0 0 0 0 0 0 0 0 0 0 0 0 0 0
0 0 0 0 0 0 0 0 0 0 0 0 0 0 0 0 0 0 0 0 0 0 0 0 0 0 0 0 0 0 0 0 0 0 0 0 0 0 0 0 0 0 0
0 0 0 0 0 0 0 0 0 0 0 0 0 0 0 0 0 0 0 0 0 0 0 0 0 0 0 0 0 0 0 0 0 0 0 0 0 0 0 0 0 0 0
0 0 0 0 0 0 0 0 0 0 0 0 0 0 0 0 0 0 0 0 0 0 0 0 0 0 0 0 0 0 0 0 0 0 1 1 0 0 0 0 0 0 0
0 0 0 0 0 0 0 0 0 0 0 0 0 0 0 0 0 0 0 0 0 0 0 0 0 0 0 0 0 0 0 0 0 0 0 0 0 0 1 0 1 0 0
0 0 0 0 0 0 0 0 0 0 0 0 0 0 0 0 0 0 0 0 0 0 0 0 0 0 0 0 0 0 0 0 0 0 0 0 0 0 0 1 1 1 0
0 0 0 0 0 0 0 0 0 0 0 0 0 0 0 0 0 0 0 0 0 0 0 0 0 0 0 0 0 0 0 0 0 0 0 0 0 0 0 0 0 1 1
0 0 0 0 0 0 0 0 0 0 0 0 0 0 0 0 0 0 0 0 0 0 0 0 0 0 0 0 0 0 0 0 0 0 0 0 0 0 0 0 0 0 0
0 0 0 0 0 0 0 0 0 0 0 0 0 0 0 0 0 0 0 0 0 0 0 0 0 0 0 0 0 0 0 0 0 0 0 0 0 0 0 0 0 0 0
0 0 0 0 0 0 0 0 0 0 0 0 0 0 0 0 0 0 0 0 0 0 0 0 0 0 0 0 0 0 0 0 0 0 0 0 0 0 0 0 0 0 0
0 0 0 0 0 0 0 0 0 0 0 0 0 0 0 0 0 0 0 0 0 0 0 0 0 0 0 0 0 0 0 0 0 0 0 0 0 0 0 0 0 0 0
0 0 0 0 0 0 0 0 0 0 0 0 0 0 0 0 0 0 0 0 0 0 0 0 0 0 0 0 0 0 0 0 0 0 0 0 0 0 0 0 0 0 0
0 0 0 0 0 0 0 0 0 0 0 0 0 0 0 0 0 0 0 0 0 0 0 0 0 0 0 0 0 0 0 0 0 0 0 0 0 0 0 0 0 0 0
0 0 0 0 0 0 0 0 0 0 0 0 0 0 0 0 0 0 0 0 0 0 0 0 0 0 0 0 0 0 0 0 0 0 0 0 0 0 0 0 0 0 0
0 0 0 0 0 0 0 0 0 0 0 0 0 0 0 0 0 0 0 0 0 0 0 0 0 0 0 0 0 0 0 0 0 0 0 0 0 0 0 0 0 0 0
0 0 0 0 0 0 0 0 0 0 0 0 0 0 0 0 0 0 0 0 0 0 0 0 0 0 0 0 0 0 0 0 0 0 0 0 0 0 0 0 0 0 0
0 0 0 0 0 0 0 0 0 0 0 0 0 0 0 0 0 0 0 0 0 0 0 0 0 0 0 0 0 0 0 0 0 0 0 0 0 0 0 0 0 0 0
0 0 0 0 0 0 0 0 0 0 0 0 0 0 0 0 0 0 0 0 0 0 0 0 0 0 0 0 0 0 0 0 0 0 0 0 0 0 0 0 0 0 0
0 0 0 0 0 0 0 0 0 0 0 0 0 0 0 0 0 0 0 0 0 0 0 0 0 0 0 0 0 0 0 0 0 0 0 0 0 0 0 0 0 0 0
0 0 0 0 0 0 0 0 0 0 0 0 0 0 0 0 0 0 0 0 0 0 0 0 0 0 0 0 0 0 0 0 0 0 0 0 0 0 0 0 0 0 0
Wind_Speed_500mb
35 28 23 21 21 20 19 16 13 9 8 9 12 13 12 10 9 8 6 4 3 2 2 2 2 2 4 5 6 6 4 2 3 3 5 3 3 3 6 6 7 7 4
35 25 25 21 19 18 16 15 13 11 10 9 8 8 9 9 8 6 4 4 5 5 7 7 6 6 7 7 5 5 4 2 3 1 3 4 2 3 5 4 5 6 5
30 25 22 18 16 16 15 13 12 10 10 9 10 9 8 8 8 9 8 9 9 9 10 9 9 9 10 11 9 8 4 4 5 6 3 3 3 3 5 5 5 5 4
26 23 21 20 19 18 16 12 10 9 7 7 7 7 5 3 5 7 11 11 11 12 12 13 13 12 13 14 14 13 11 9 8 10 9 10 12 16 8 7 5 7 6
28 22 18 19 22 20 17 14 11 11 11 10 9 8 9 9 9 12 12 13 14 14 15 15 16 16 16 17 17 16 15 13 13 13 16 15 12 9 11 9 6 7 7
25 21 23 23 23 20 17 14 13 12 12 10 10 10 12 13 15 16 16 17 18 19 19 20 20 21 21 21 20 20 20 18 17 17 19 20 18 15 14 12 10 10 11
22 18 17 25 22 18 15 13 10 7 7 7 8 9 10 13 15 17 19 20 22 23 24 25 26 26 26 25 26 26 26 25 23 22 23 23 23 21 20 16 18 18 15
19 18 17 18 18 14 12 9 7 4 4 5 6 7 9 9 13 15 17 20 22 24 25 25 26 28 30 31 32 31 32 31 30 28 28 27 28 28 27 24 21 24 22
18 16 16 16 14 11 9 7 5 4 6 6 7 8 11 14 16 19 21 22 23 24 24 24 26 27 29 30 34 37 37 36 35 34 34 33 31 33 34 33 32 24 28
21 18 19 17 15 12 9 11 10 10 9 8 9 11 13 16 19 23 25 27 28 29 31 30 30 30 31 32 33 34 38 41 40 39 37 37 38 36 36 38 36 34 32
24 22 19 16 14 11 8 7 7 9 9 10 10 12 14 16 19 21 24 27 29 31 31 32 32 33 33 36 36 36 38 40 41 43 39 44 44 42 40 39 39 39 38
25 21 18 14 11 8 8 8 7 7 7 8 9 11 13 15 16 19 21 24 25 25 28 30 31 31 33 33 34 36 39 42 43 43 47 48 46 43 45 45 35 41 43
21 16 14 12 13 14 14 12 10 8 8 9 9 9 10 13 15 18 19 20 21 23 25 25 25 26 27 28 31 31 33 37 44 46 50 50 52 51 50 49 48 39 43
18 13 11 12 14 14 13 11 8 5 5 7 9 11 13 14 15 15 16 19 20 21 21 21 22 24 25 26 26 28 30 30 33 39 46 51 52 53 52 48 50 51 50
16 12 9 10 12 13 12 10 8 7 6 8 9 11 14 17 19 21 22 23 25 26 25 25 25 24 23 23 25 26 28 30 30 31 33 40 48 52 53 52 49 53 54
16 9 8 9 11 12 11 11 10 8 8 10 12 13 16 18 20 22 23 25 26 26 28 28 29 27 26 25 25 26 26 27 28 27 27 25 31 43 50 54 57 59 51
16 10 8 8 9 9 11 11 10 9 10 11 13 17 19 21 22 23 24 25 27 29 30 29 27 26 25 24 24 22 23 24 19 17 16 16 19 23 31 44 52 57 63
17 11 8 8 9 11 12 11 11 11 13 16 19 21 24 26 27 27 28 29 29 30 32 32 31 28 25 25 24 20 19 15 14 11 10 11 12 15 18 22 30 45 53
18 12 9 9 10 12 13 12 11 12 14 16 18 20 22 25 26 27 27 28 29 29 30 30 30 31 29 27 25 22 16 10 9 7 9 8 11 15 18 21 22 24 34
18 12 7 8 10 10 10 11 12 13 14 16 17 18 21 22 23 24 25 25 26 27 27 29 31 32 33 33 28 21 9 5 1 7 9 11 16 22 21 22 23 22 23
22 14 12 11 10 11 11 12 13 14 14 15 16 18 20 20 21 22 22 24 25 27 29 32 34 35 34 31 24 18 9 8 8 17 14 17 25 28 26 23 23 25 21
23 21 18 16 15 14 15 15 16 15 15 13 15 17 19 21 22 24 25 24 24 25 25 28 32 33 32 32 27 19 5 11 13 25 9 26 32 28 23 20 20 21 25
30 26 23 20 17 15 16 16 16 14 14 16 16 18 20 22 23 24 24 25 26 29 31 33 32 32 30 28 24 14 8 7 32 6 18 28 34 30 24 25 25 29 28
34 32 26 20 16 13 13 15 15 15 13 12 11 11 14 16 18 21 23 25 27 27 28 30 31 30 27 25 20 20 13 11 12 17 25 33 33 34 32 32 36 34 33
40 36 28 21 12 11 13 14 13 12 10 7 6 9 12 14 17 19 22 23 24 26 27 27 27 27 27 25 25 22 17 9 16 10 22 44 34 36 34 37 44 43 39
45 39 29 19 15 14 10 10 9 8 6 4 5 7 8 11 14 16 18 18 21 22 23 25 25 25 26 26 26 24 23 18 19 16 18 37 35 33 34 32 41 51 53
Wind_Direction_500mb
181 174 158 147 148 152 154 150 148 139 131 126 131 135 147 152 153 157 173 180 196 194 229 246 262 316 341 356 355 357 12 1 353 13 0 14 78 71 46 35 37 22 20
179 174 168 157 154 152 154 155 155 160 163 161 164 162 161 168 172 186 218 243 250 256 263 273 291 303 317 327 328 335 332 304 278 293 318 291 204 17 19 358 8 4 349
172 174 166 157 163 166 168 164 167 171 173 181 188 193 193 199 200 205 213 231 244 255 258 267 275 287 295 298 296 294 298 281 267 274 280 262 228 317 327 307 325 329 316
165 166 170 171 180 186 184 183 190 192 199 214 221 217 208 211 232 231 234 236 245 252 260 262 270 276 282 287 291 291 286 265 244 253 254 254 274 272 283 299 307 315 314
176 172 179 187 195 192 191 197 203 212 219 226 236 244 246 245 249 270 275 271 269 265 262 261 263 265 268 275 282 282 278 276 269 254 256 260 272 253 269 277 297 308 306
170 179 207 224 210 200 199 206 216 224 233 238 253 252 261 268 274 273 276 275 274 276 275 274 272 268 263 262 265 270 271 267 265 258 254 260 264 270 262 261 280 288 290
173 188 205 218 204 209 208 213 216 220 237 252 268 276 282 285 289 292 292 291 290 291 289 285 281 274 267 264 262 261 262 263 261 257 256 254 258 260 266 268 265 270 275
172 197 217 187 195 208 205 206 208 209 244 261 263 268 274 281 282 287 293 295 296 297 295 291 288 284 276 267 262 261 261 261 262 259 256 253 251 255 257 259 272 261 258
189 213 190 182 189 201 208 213 215 230 233 236 249 267 278 284 293 297 295 293 293 293 291 291 289 287 284 279 271 263 261 262 262 263 262 260 252 249 251 257 257 271 246
198 202 197 192 193 196 201 213 215 213 217 240 263 276 287 297 303 304 304 303 301 299 297 294 288 283 282 281 280 278 268 258 256 258 259 258 256 253 249 252 250 253 248
196 201 200 201 206 205 212 234 237 244 258 279 299 309 308 308 309 308 306 305 304 304 301 299 299 294 287 281 276 275 276 276 275 263 254 256 253 252 253 251 249 247 247
195 191 196 204 218 243 262 271 270 272 284 303 318 324 329 328 325 320 317 316 315 314 312 312 310 307 302 294 286 279 272 271 269 268 268 267 261 253 252 250 254 247 245
187 187 202 226 246 255 262 267 274 293 324 340 341 332 327 328 329 328 327 327 325 324 321 320 319 316 311 307 302 295 283 275 271 266 261 261 263 261 250 247 247 243 248
182 193 215 236 251 261 267 273 281 290 295 310 323 335 338 334 329 324 324 324 323 321 323 323 323 323 321 316 312 309 306 295 281 274 269 265 261 261 263 251 247 244 240
185 193 217 242 252 257 259 262 268 277 302 326 335 333 333 332 331 333 335 333 332 330 329 328 327 326 323 318 314 312 307 303 299 291 277 268 264 259 256 256 248 247 246
196 211 243 261 267 272 276 274 276 292 317 332 335 337 339 337 336 334 333 333 332 331 331 332 330 327 323 320 313 308 305 301 296 293 291 284 270 264 258 253 252 247 246
205 225 253 267 272 272 272 277 290 306 311 320 331 338 339 340 339 337 336 334 333 334 336 333 331 328 326 321 316 307 300 294 296 296 293 289 281 275 267 260 255 252 248
208 222 240 248 252 256 261 266 271 288 315 327 333 339 341 341 339 337 336 335 337 338 337 335 334 336 334 333 332 320 305 284 274 287 305 309 299 293 295 283 269 258 256
199 201 209 211 223 231 240 253 277 299 309 321 331 334 336 335 334 334 335 336 336 336 336 340 342 341 343 345 341 332 309 287 268 292 307 314 330 327 313 305 296 280 266
193 196 207 221 225 232 249 260 270 284 298 311 322 329 334 335 336 337 338 339 340 341 342 343 344 345 346 347 349 343 312 260 132 3 347 339 343 338 329 313 299 293 282
190 196 204 216 229 240 249 254 267 279 292 306 318 329 333 338 339 342 343 344 345 348 349 347 345 343 342 348 348 347 312 250 268 334 336 348 350 346 336 325 314 307 300
191 198 207 215 223 229 236 247 256 260 269 284 310 329 336 340 342 345 348 351 352 352 350 347 347 350 350 353 2 349 330 295 238 315 333 352 350 349 346 338 331 321 317
190 205 210 215 222 229 238 245 254 269 290 303 321 332 334 341 347 349 349 352 353 352 350 350 353 356 3 5 14 26 355 336 328 284 331 351 1 1 -0 355 347 343 335
195 208 207 210 217 226 234 236 245 256 271 286 296 315 339 342 344 350 352 353 353 355 355 357 359 0 9 16 23 32 33 2 356 323 333 357 7 11 7 6 358 357 349
200 209 205 204 209 230 224 223 234 246 241 258 314 339 338 342 348 351 352 356 357 360 1 3 4 9 15 20 27 28 37 15 4 342 321 349 9 13 13 10 4 4 -0
203 206 201 199 209 210 201 208 221 243 272 320 337 328 334 350 359 359 358 1 8 9 10 12 15 19 26 31 30 25 30 31 10 15 333 339 346 2 17 12 8 8 4
Wind_Speed_850mb
35 28 23 21 21 20 19 16 13 9 8 9 12 13 12 10 9 8 6 4 3 2 2 2 2 2 4 5 6 6 4 2 3 3 5 3 3 3 6 6 7 7 4
35 25 25 21 19 18 16 15 13 11 10 9 8 8 9 9 8 6 4 4 5 5 7 7 6 6 7 7 5 5 4 2 3 1 3 4 2 3 5 4 5 6 5
30 25 22 18 16 16 15 13 12 10 10 9 10 9 8 8 8 9 8 9 9 9 10 9 9 9 10 11 9 8 4 4 5 6 3 3 3 3 5 5 5 5 4
26 23 21 20 19 18 16 12 10 9 7 7 7 7 5 3 5 7 11 11 11 12 12 13 13 12 13 14 14 13 11 9 8 10 9 10 12 16 8 7 5 7 6
28 22 18 19 22 20 17 14 11 11 11 10 9 8 9 9 9 12 12 13 14 14 15 15 16 16 16 17 17 16 15 13 13 13 16 15 12 9 11 9 6 7 7
25 21 23 23 23 20 17 14 13 12 12 10 10 10 12 13 15 16 16 17 18 19 19 20 20 21 21 21 20 20 20 18 17 17 19 20 18 15 14 12 10 10 11
22 18 17 25 22 18 15 13 10 7 7 7 8 9 10 13 15 17 19 20 22 23 24 25 26 26 26 25 26 26 26 25 23 22 23 23 23 21 20 16 18 18 15
19 18 17 18 18 14 12 9 7 4 4 5 6 7 9 9 13 15 17 20 22 24 25 25 26 28 30 31 32 31 32 31 30 28 28 27 28 28 27 24 21 24 22
18 16 16 16 14 11 9 7 5 4 6 6 7 8 11 14 16 19 21 22 23 24 24 24 26 27 29 30 34 37 37 36 35 34 34 33 31 33 34 33 32 24 28
21 18 19 17 15 12 9 11 10 10 9 8 9 11 13 16 19 23 25 27 28 29 31 30 30 30 31 32 33 34 38 41 40 39 37 37 38 36 36 38 36 34 32
24 22 19 16 14 11 8 7 7 9 9 10 10 12 14 16 19 21 24 27 29 31 31 32 32 33 33 36 36 36 38 40 41 43 39 44 44 42 40 39 39 39 38
25 21 18 14 11 8 8 8 7 7 7 8 9 11 13 15 16 19 21 24 25 25 28 30 31 31 33 33 34 36 39 42 43 43 47 48 46 43 45 45 35 41 43
21 16 14 12 13 14 14 12 10 8 8 9 9 9 10 13 15 18 19 20 21 23 25 25 25 26 27 28 31 31 33 37 44 46 50 50 52 51 50 49 48 39 43
18 13 11 12 14 14 13 11 8 5 5 7 9 11 13 14 15 15 16 19 20 21 21 21 22 24 25 26 26 28 30 30 33 39 46 51 52 53 52 48 50 51 50
16 12 9 10 12 13 12 10 8 7 6 8 9 11 14 17 19 21 22 23 25 26 25 25 25 24 23 23 25 26 28 30 30 31 33 40 48 52 53 52 49 53 54
16 9 8 9 11 12 11 11 10 8 8 10 12 13 16 18 20 22 23 25 26 26 28 28 29 27 26 25 25 26 26 27 28 27 27 25 31 43 50 54 57 59 51
16 10 8 8 9 9 11 11 10 9 10 11 13 17 19 21 22 23 24 25 27 29 30 29 27 26 25 24 24 22 23 24 19 17 16 16 19 23 31 44 52 57 63
17 11 8 8 9 11 12 11 11 11 13 16 19 21 24 26 27 27 28 29 29 30 32 32 31 28 25 25 24 20 19 15 14 11 10 11 12 15 18 22 30 45 53
18 12 9 9 10 12 13 12 11 12 14 16 18 20 22 25 26 27 27 28 29 29 30 30 30 31 29 27 25 22 16 10 9 7 9 8 11 15 18 21 22 24 34
18 12 7 8 10 10 10 11 12 13 14 16 17 18 21 22 23 24 25 25 26 27 27 29 31 32 33 33 28 21 9 5 1 7 9 11 16 22 21 22 23 22 23
22 14 12 11 10 11 11 12 13 14 14 15 16 18 20 20 21 22 22 24 25 27 29 32 34 35 34 31 24 18 9 8 8 17 14 17 25 28 26 23 23 25 21
23 21 18 16 15 14 15 15 16 15 15 13 15 17 19 21 22 24 25 24 24 25 25 28 32 33 32 32 27 19 5 11 13 25 9 26 32 28 23 20 20 21 25
30 26 23 20 17 15 16 16 16 14 14 16 16 18 20 22 23 24 24 25 26 29 31 33 32 32 30 28 24 14 8 7 32 6 18 28 34 30 24 25 25 29 28
34 32 26 20 16 13 13 15 15 15 13 12 11 11 14 16 18 21 23 25 27 27 28 30 31 30 27 25 20 20 13 11 12 17 25 33 33 34 32 32 36 34 33
40 36 28 21 12 11 13 14 13 12 10 7 6 9 12 14 17 19 22 23 24 26 27 27 27 27 27 25 25 22 17 9 16 10 22 44 34 36 34 37 44 43 39
45 39 29 19 15 14 10 10 9 8 6 4 5 7 8 11 14 16 18 18 21 22 23 25 25 25 26 26 26 24 23 18 19 16 18 37 35 33 34 32 41 51 53
Wind_Direction_850mb
181 174 158 147 148 152 154 150 148 139 131 126 131 135 147 152 153 157 173 180 196 194 229 246 262 316 341 356 355 357 12 1 353 13 0 14 78 71 46 35 37 22 20
179 174 168 157 154 152 154 155 155 160 163 161 164 162 161 168 172 186 218 243 250 256 263 273 291 303 317 327 328 335 332 304 278 293 318 291 204 17 19 358 8 4 349
172 174 166 157 163 166 168 164 167 171 173 181 188 193 193 199 200 205 213 231 244 255 258 267 275 287 295 298 296 294 298 281 267 274 280 262 228 317 327 307 325 329 316
165 166 170 171 180 186 184 183 190 192 199 214 221 217 208 211 232 231 234 236 245 252 260 262 270 276 282 287 291 291 286 265 244 253 254 254 274 272 283 299 307 315 314
176 172 179 187 195 192 191 197 203 212 219 226 236 244 246 245 249 270 275 271 269 265 262 261 263 265 268 275 282 282 278 276 269 254 256 260 272 253 269 277 297 308 306
170 179 207 224 210 200 199 206 216 224 233 238 253 252 261 268 274 273 276 275 274 276 275 274 272 268 263 262 265 270 271 267 265 258 254 260 264 270 262 261 280 288 290
173 188 205 218 204 209 208 213 216 220 237 252 268 276 282 285 289 292 292 291 290 291 289 285 281 274 267 264 262 261 262 263 261 257 256 254 258 260 266 268 265 270 275
172 197 217 187 195 208 205 206 208 209 244 261 263 268 274 281 282 287 293 295 296 297 295 291 288 284 276 267 262 261 261 261 262 259 256 253 251 255 257 259 272 261 258
189 213 190 182 189 201 208 213 215 230 233 236 249 267 278 284 293 297 295 293 293 293 291 291 289 287 284 279 271 263 261 262 262 263 262 260 252 249 251 257 257 271 246
198 202 197 192 193 196 201 213 215 213 217 240 263 276 287 297 303 304 304 303 301 299 297 294 288 283 282 281 280 278 268 258 256 258 259 258 256 253 249 252 250 253 248
196 201 200 201 206 205 212 234 237 244 258 279 299 309 308 308 309 308 306 305 304 304 301 299 299 294 287 281 276 275 276 276 275 263 254 256 253 252 253 251 249 247 247
195 191 196 204 218 243 262 271 270 272 284 303 318 324 329 328 325 320 317 316 315 314 312 312 310 307 302 294 286 279 272 271 269 268 268 267 261 253 252 250 254 247 245
187 187 202 226 246 255 262 267 274 293 324 340 341 332 327 328 329 328 327 327 325 324 321 320 319 316 311 307 302 295 283 275 271 266 261 261 263 261 250 247 247 243 248
182 193 215 236 251 261 267 273 281 290 295 310 323 335 338 334 329 324 324 324 323 321 323 323 323 323 321 316 312 309 306 295 281 274 269 265 261 261 263 251 247 244 240
185 193 217 242 252 257 259 262 268 277 302 326 335 333 333 332 331 333 335 333 332 330 329 328 327 326 323 318 314 312 307 303 299 291 277 268 264 259 256 256 248 247 246
196 211 243 261 267 272 276 274 276 292 317 332 335 337 339 337 336 334 333 333 332 331 331 332 330 327 323 320 313 308 305 301 296 293 291 284 270 264 258 253 252 247 246
205 225 253 267 272 272 272 277 290 306 311 320 331 338 339 340 339 337 336 334 333 334 336 333 331 328 326 321 316 307 300 294 296 296 293 289 281 275 267 260 255 252 248
208 222 240 248 252 256 261 266 271 288 315 327 333 339 341 341 339 337 336 335 337 338 337 335 334 336 334 333 332 320 305 284 274 287 305 309 299 293 295 283 269 258 256
199 201 209 211 223 231 240 253 277 299 309 321 331 334 336 335 334 334 335 336 336 336 336 340 342 341 343 345 341 332 309 287 268 292 307 314 330 327 313 305 296 280 266
193 196 207 221 225 232 249 260 270 284 298 311 322 329 334 335 336 337 338 339 340 341 342 343 344 345 346 347 349 343 312 260 132 3 347 339 343 338 329 313 299 293 282
190 196 204 216 229 240 249 254 267 279 292 306 318 329 333 338 339 342 343 344 345 348 349 347 345 343 342 348 348 347 312 250 268 334 336 348 350 346 336 325 314 307 300
191 198 207 215 223 229 236 247 256 260 269 284 310 329 336 340 342 345 348 351 352 352 350 347 347 350 350 353 2 349 330 295 238 315 333 352 350 349 346 338 331 321 317
190 205 210 215 222 229 238 245 254 269 290 303 321 332 334 341 347 349 349 352 353 352 350 350 353 356 3 5 14 26 355 336 328 284 331 351 1 1 -0 355 347 343 335
195 208 207 210 217 226 234 236 245 256 271 286 296 315 339 342 344 350 352 353 353 355 355 357 359 0 9 16 23 32 33 2 356 323 333 357 7 11 7 6 358 357 349
200 209 205 204 209 230 224 223 234 246 241 258 314 339 338 342 348 351 352 356 357 360 1 3 4 9 15 20 27 28 37 15 4 342 321 349 9 13 13 10 4 4 -0
203 206 201 199 209 210 201 208 221 243 272 320 337 328 334 350 359 359 358 1 8 9 10 12 15 19 26 31 30 25 30 31 10 15 333 339 346 2 17 12 8 8 4